Location: Byhalia Creek
(34.8270°N, 89.8040°W)
Time: 17:22:56
(UTC+00:00)

Cosmos 1048 Rocket - Pass Details

Date: 22 April 2026
Orbit: 739 x 786 km, 74.0° (Epoch: 9 May)

Event Time Altitude Azimuth Distance (km) Brightness Sun altitude
Rises 01:43:31 0° 341° (NNW) 3,196 7.9 -13.7°
Reaches altitude 10° 01:45:52 10° 339° (NNW) 2,275 7.1 -14.1°
Maximum altitude 01:51:01 77° 255° (WSW) 780 4.1 -15.1°
Enters shadow 01:56:11 10° 170° (S) 2,285 6.1 -16.0°
